• In Russia
  • List of Countries
  • For 7 days
  • Water Temperature
  • Satellite Maps
  • Weather Map
  • Weather Widgets
  • user-avatar
    Login

    Hourly Weather Aluksne

    Today, 19 January, Saturday

    Time Temperature Precipitation Wind Pressure Humidity
    00:00 -8°C° 0.1 mm 4 mps 734 mmHg 90%
    01:00 -7°C° 0.1 mm 4 mps 734 mmHg 90%
    02:00 -7°C° 0 mm 4 mps 735 mmHg 90%
    03:00 -7°C° 0 mm 3 mps 735 mmHg 91%
    04:00 -8°C° 0 mm 3 mps 736 mmHg 92%
    05:00 -8°C° 0 mm 2 mps 736 mmHg 93%
    06:00 -9°C° 0 mm 2 mps 736 mmHg 94%
    07:00 -10°C° 0 mm 2 mps 737 mmHg 94%
    08:00 -12°C° 0 mm 2 mps 737 mmHg 94%
    09:00 -10°C° 0 mm 2 mps 738 mmHg 93%
    10:00 -8°C° 0 mm 2 mps 738 mmHg 92%
    11:00 -7°C° 0 mm 2 mps 738 mmHg 91%
    12:00 -6°C° 0 mm 2 mps 739 mmHg 89%
    13:00 -6°C° 0 mm 3 mps 739 mmHg 86%
    14:00 -4°C° 0 mm 3 mps 739 mmHg 83%
    15:00 -5°C° 0 mm 3 mps 739 mmHg 85%
    16:00 -5°C° 0 mm 3 mps 739 mmHg 86%
    17:00 -6°C° 0 mm 3 mps 739 mmHg 87%
    18:00 -6°C° 0 mm 3 mps 739 mmHg 89%
    19:00 -8°C° 0 mm 4 mps 739 mmHg 90%
    20:00 -8°C° 0 mm 4 mps 738 mmHg 91%
    21:00 -7°C° 0.1 mm 5 mps 738 mmHg 90%
    22:00 -7°C° 0.1 mm 5 mps 737 mmHg 88%
    23:00 -6°C° 0.1 mm 6 mps 737 mmHg 87%

    Tomorrow, 20 January, Sunday

    Time Temperature Precipitation Wind Pressure Humidity
    00:00 -5°C° 0.6 mm 6 mps 736 mmHg 88%
    01:00 -4°C° 0.6 mm 6 mps 736 mmHg 89%
    02:00 -4°C° 0.6 mm 6 mps 736 mmHg 90%
    03:00 -4°C° 0.6 mm 5 mps 735 mmHg 86%
    04:00 -5°C° 0.6 mm 5 mps 735 mmHg 83%
    05:00 -4°C° 0.6 mm 4 mps 735 mmHg 80%
    06:00 -5°C° 0 mm 4 mps 735 mmHg 81%
    07:00 -7°C° 0 mm 4 mps 736 mmHg 81%
    08:00 -8°C° 0 mm 4 mps 736 mmHg 82%
    09:00 -8°C° 0 mm 4 mps 736 mmHg 81%
    10:00 -7°C° 0 mm 4 mps 737 mmHg 81%
    11:00 -7°C° 0 mm 4 mps 737 mmHg 81%
    12:00 -7°C° 0 mm 4 mps 738 mmHg 80%
    13:00 -7°C° 0 mm 4 mps 738 mmHg 80%
    14:00 -7°C° 0 mm 4 mps 738 mmHg 79%
    15:00 -8°C° 0 mm 4 mps 738 mmHg 83%
    16:00 -8°C° 0 mm 3 mps 739 mmHg 86%
    17:00 -9°C° 0 mm 3 mps 739 mmHg 90%
    18:00 -10°C° 0 mm 3 mps 739 mmHg 91%
    19:00 -10°C° 0 mm 2 mps 739 mmHg 93%
    20:00 -10°C° 0 mm 2 mps 740 mmHg 94%
    21:00 -12°C° 0 mm 2 mps 740 mmHg 94%
    22:00 -13°C° 0 mm 2 mps 740 mmHg 94%
    23:00 -13°C° 0 mm 2 mps 740 mmHg 95%

    Day after tomorrow, 21 January, Monday

    Time Temperature Precipitation Wind Pressure Humidity
    00:00 -13°C° 0 mm 2 mps 740 mmHg 94%
    01:00 -13°C° 0 mm 2 mps 741 mmHg 94%
    02:00 -13°C° 0 mm 2 mps 741 mmHg 93%
    03:00 -13°C° 0 mm 2 mps 741 mmHg 93%
    04:00 -12°C° 0 mm 2 mps 741 mmHg 93%
    05:00 -12°C° 0 mm 2 mps 741 mmHg 93%
    06:00 -12°C° 0 mm 2 mps 741 mmHg 94%
    07:00 -13°C° 0 mm 2 mps 741 mmHg 94%
    08:00 -11°C° 0 mm 1 mps 742 mmHg 94%
    09:00 -10°C° 0.1 mm 1 mps 742 mmHg 94%
    10:00 -8°C° 0.1 mm 1 mps 742 mmHg 93%
    11:00 -7°C° 0.1 mm 1 mps 742 mmHg 93%
    12:00 -6°C° 0.1 mm 1 mps 742 mmHg 92%
    13:00 -6°C° 0.1 mm 2 mps 742 mmHg 91%
    14:00 -5°C° 0.1 mm 2 mps 742 mmHg 89%
    15:00 -4°C° 0 mm 1 mps 742 mmHg 91%
    16:00 -7°C° 0 mm 1 mps 742 mmHg 93%
    17:00 -8°C° 0 mm 1 mps 742 mmHg 94%
    18:00 -8°C° 0 mm 1 mps 742 mmHg 95%
    19:00 -8°C° 0 mm 1 mps 742 mmHg 96%
    20:00 -8°C° 0 mm 1 mps 742 mmHg 97%
    21:00 -8°C° 0.2 mm 1 mps 741 mmHg 97%
    22:00 -8°C° 0.2 mm 1 mps 741 mmHg 97%
    23:00 -9°C° 0.2 mm 2 mps 741 mmHg 97%

    22 January, Tuesday

    Time Temperature Precipitation Wind Pressure Humidity
    00:00 -9°C° 0.5 mm 2 mps 740 mmHg 97%
    01:00 -9°C° 0.5 mm 2 mps 740 mmHg 97%
    02:00 -9°C° 0.5 mm 2 mps 740 mmHg 96%
    03:00 -10°C° 0.4 mm 3 mps 739 mmHg 96%
    04:00 -12°C° 0.4 mm 3 mps 739 mmHg 96%
    05:00 -12°C° 0.4 mm 3 mps 738 mmHg 95%
    06:00 -12°C° 0.2 mm 3 mps 738 mmHg 95%
    07:00 -13°C° 0.2 mm 3 mps 738 mmHg 95%
    08:00 -13°C° 0.2 mm 3 mps 738 mmHg 95%
    09:00 -13°C° 0 mm 3 mps 738 mmHg 95%
    10:00 -14°C° 0 mm 3 mps 738 mmHg 94%
    11:00 -14°C° 0 mm 3 mps 739 mmHg 94%
    12:00 -14°C° 0 mm 3 mps 739 mmHg 94%
    13:00 -14°C° 0 mm 3 mps 739 mmHg 93%
    14:00 -14°C° 0 mm 3 mps 739 mmHg 92%
    15:00 -15°C° 0 mm 3 mps 739 mmHg 94%
    16:00 -15°C° 0 mm 2 mps 739 mmHg 95%
    17:00 -17°C° 0 mm 2 mps 739 mmHg 97%
    18:00 -18°C° 0 mm 2 mps 740 mmHg 97%
    19:00 -19°C° 0 mm 2 mps 740 mmHg 97%
    20:00 -18°C° 0 mm 1 mps 740 mmHg 97%
    21:00 -19°C° 0 mm 1 mps 741 mmHg 96%
    22:00 -19°C° 0 mm 1 mps 741 mmHg 95%
    23:00 -19°C° 0 mm 1 mps 741 mmHg 93%

    23 January, Wednesday

    Time Temperature Precipitation Wind Pressure Humidity
    00:00 -19°C° 0 mm 1 mps 741 mmHg 93%
    01:00 -19°C° 0 mm 1 mps 741 mmHg 92%
    02:00 -19°C° 0 mm 1 mps 741 mmHg 91%
    03:00 -20°C° 0 mm 1 mps 741 mmHg 90%
    04:00 -20°C° 0 mm 0 mps 741 mmHg 90%
    05:00 -20°C° 0 mm 0 mps 741 mmHg 89%
    06:00 -19°C° 0 mm 1 mps 741 mmHg 88%
    07:00 -19°C° 0 mm 1 mps 741 mmHg 88%
    08:00 -19°C° 0 mm 1 mps 741 mmHg 87%
    09:00 -18°C° 0 mm 1 mps 742 mmHg 85%
    10:00 -16°C° 0 mm 1 mps 742 mmHg 84%
    11:00 -17°C° 0 mm 2 mps 742 mmHg 83%
    12:00 -16°C° 0 mm 2 mps 742 mmHg 82%
    13:00 -15°C° 0 mm 2 mps 742 mmHg 82%
    14:00 -14°C° 0 mm 2 mps 741 mmHg 82%
    15:00 -14°C° 0 mm 2 mps 741 mmHg 84%
    16:00 -14°C° 0 mm 2 mps 741 mmHg 85%
    17:00 -15°C° 0 mm 2 mps 741 mmHg 87%
    18:00 -15°C° 0 mm 2 mps 741 mmHg 86%
    19:00 -15°C° 0 mm 2 mps 741 mmHg 85%
    20:00 -17°C° 0 mm 3 mps 741 mmHg 85%
    21:00 -17°C° 0 mm 3 mps 741 mmHg 85%
    22:00 -17°C° 0 mm 3 mps 741 mmHg 85%
    23:00 -16°C° 0 mm 2 mps 741 mmHg 85%

    24 January, Thursday

    Time Temperature Precipitation Wind Pressure Humidity
    00:00 -16°C° 0.2 mm 2 mps 741 mmHg 88%
    01:00 -16°C° 0.2 mm 2 mps 741 mmHg 91%
    02:00 -15°C° 0.2 mm 2 mps 741 mmHg 94%
    03:00 -15°C° 0.3 mm 2 mps 741 mmHg 95%
    04:00 -14°C° 0.3 mm 2 mps 741 mmHg 96%
    05:00 -12°C° 0.3 mm 1 mps 741 mmHg 97%
    06:00 -15°C° 0 mm 2 mps 741 mmHg 97%
    07:00 -16°C° 0 mm 2 mps 742 mmHg 97%
    08:00 -17°C° 0 mm 2 mps 742 mmHg 98%
    09:00 -17°C° 0 mm 2 mps 742 mmHg 97%
    10:00 -16°C° 0 mm 2 mps 742 mmHg 96%
    11:00 -16°C° 0 mm 2 mps 742 mmHg 95%
    12:00 -16°C° 0 mm 3 mps 742 mmHg 92%
    13:00 -15°C° 0 mm 3 mps 742 mmHg 89%
    14:00 -15°C° 0 mm 3 mps 743 mmHg 86%
    15:00 -16°C° 0 mm 3 mps 743 mmHg 88%
    16:00 -17°C° 0 mm 3 mps 743 mmHg 89%
    17:00 -18°C° 0 mm 3 mps 743 mmHg 91%
    18:00 -18°C° 0 mm 3 mps 744 mmHg 92%
    19:00 -19°C° 0 mm 3 mps 744 mmHg 93%
    20:00 -19°C° 0 mm 3 mps 744 mmHg 94%
    21:00 -18°C° 0 mm 3 mps 745 mmHg 95%
    22:00 -18°C° 0 mm 3 mps 745 mmHg 95%
    23:00 -18°C° 0 mm 3 mps 746 mmHg 95%
    Show more